StationID,Date,MaxTemp,MinTemp,Precipitation,Snowfall,SnowDepth
"RP000098430","1961-01-01",28.40,28.40,0.00,,
"RP000098430","1961-01-02",28.40,28.40,0.00,,
"RP000098430","1961-01-03",28.40,28.40,0.00,,
"RP000098430","1961-01-04",28.40,28.40,0.00,,
"RP000098430","1961-01-05",85.46,64.76,0.00,,
"RP000098430","1961-01-06",88.52,66.20,0.00,,
"RP000098430","1961-01-07",87.98,65.66,0.00,,
"RP000098430","1961-01-08",89.06,68.72,0.00,,
"RP000098430","1961-01-09",87.26,65.48,0.00,,
"RP000098430","1961-01-10",89.96,64.94,0.00,,
"RP000098430","1961-01-11",87.08,64.04,0.00,,
"RP000098430","1961-01-12",87.08,66.56,0.00,,
"RP000098430","1961-01-13",85.28,66.74,0.00,,
"RP000098430","1961-01-14",84.92,62.78,0.00,,
"RP000098430","1961-01-15",82.94,63.14,0.00,,
"RP000098430","1961-01-16",82.58,62.06,0.00,,
"RP000098430","1961-01-17",83.84,66.56,0.00,,
"RP000098430","1961-01-18",82.04,63.86,0.00,,
"RP000098430","1961-01-19",77.00,62.96,0.00,,
"RP000098430","1961-01-20",80.96,60.98,0.00,,
"RP000098430","1961-01-21",84.02,65.48,0.00,,
"RP000098430","1961-01-22",87.08,62.42,0.00,,
"RP000098430","1961-01-23",82.40,65.12,0.00,,
"RP000098430","1961-01-24",80.60,68.72,0.00,,
"RP000098430","1961-01-25",84.20,66.02,0.00,,
"RP000098430","1961-01-26",84.56,70.16,0.00,,
"RP000098430","1961-01-27",84.92,64.94,0.00,,
"RP000098430","1961-01-28",87.08,63.68,0.00,,
"RP000098430","1961-01-29",87.26,64.94,0.00,,
"RP000098430","1961-01-30",88.16,64.76,0.00,,
"RP000098430","1961-01-31",87.98,64.94,0.00,,
"RP000098430","1961-02-01",87.08,69.08,0.00,,
"RP000098430","1961-02-02",83.84,68.36,0.00,,
"RP000098430","1961-02-03",84.20,68.00,10.00,,
"RP000098430","1961-02-04",87.98,69.80,0.00,,
"RP000098430","1961-02-05",88.88,66.02,0.00,,
"RP000098430","1961-02-06",92.12,68.72,0.00,,
"RP000098430","1961-02-07",92.12,69.98,0.00,,
"RP000098430","1961-02-08",91.04,68.00,0.00,,
"RP000098430","1961-02-09",93.02,66.20,0.00,,
"RP000098430","1961-02-10",91.04,66.92,0.00,,
"RP000098430","1961-02-11",93.02,71.96,0.00,,
"RP000098430","1961-02-12",85.46,61.52,40.00,,
"RP000098430","1961-02-13",88.34,68.72,0.00,,
"RP000098430","1961-02-14",91.04,66.92,0.00,,
"RP000098430","1961-02-15",91.22,65.84,0.00,,
"RP000098430","1961-02-16",91.94,66.92,0.00,,
"RP000098430","1961-02-17",88.88,68.36,0.00,,
"RP000098430","1961-02-18",93.92,70.52,0.00,,
"RP000098430","1961-02-19",92.84,68.00,0.00,,
"RP000098430","1961-02-20",93.38,66.92,0.00,,
"RP000098430","1961-02-21",93.02,64.94,0.00,,
"RP000098430","1961-02-22",93.92,68.00,0.00,,
"RP000098430","1961-02-23",93.02,69.80,0.00,,
"RP000098430","1961-02-24",91.94,71.06,30.00,,
"RP000098430","1961-02-25",87.98,70.88,0.00,,
"RP000098430","1961-02-26",89.24,71.24,0.00,,
"RP000098430","1961-02-27",83.48,68.00,0.00,,
"RP000098430","1961-02-28",86.00,67.64,0.00,,
"RP000098430","1961-03-01",89.96,73.04,0.00,,
"RP000098430","1961-03-02",88.16,73.04,40.00,,
"RP000098430","1961-03-03",95.00,71.78,0.00,,
"RP000098430","1961-03-04",93.92,72.68,50.00,,
"RP000098430","1961-03-05",96.80,74.48,110.00,,
"RP000098430","1961-03-06",90.32,71.42,360.00,,
"RP000098430","1961-03-07",89.42,71.96,0.00,,
"RP000098430","1961-03-08",91.94,71.96,0.00,,
"RP000098430","1961-03-09",91.58,73.76,20.00,,
"RP000098430","1961-03-10",84.92,72.32,20.00,,
"RP000098430","1961-03-11",89.96,69.08,0.00,,
"RP000098430","1961-03-12",92.66,70.52,0.00,,
"RP000098430","1961-03-13",92.48,71.24,0.00,,
"RP000098430","1961-03-14",88.70,69.98,20.00,,
"RP000098430","1961-03-15",93.02,66.74,0.00,,
"RP000098430","1961-03-16",92.48,79.34,0.00,,
"RP000098430","1961-03-17",89.06,73.04,0.00,,
"RP000098430","1961-03-18",93.92,75.92,0.00,,
"RP000098430","1961-03-19",96.26,73.94,0.00,,
"RP000098430","1961-03-20",94.64,73.94,0.00,,
"RP000098430","1961-03-21",93.92,73.22,0.00,,
"RP000098430","1961-03-22",95.18,71.42,0.00,,
"RP000098430","1961-03-23",96.08,73.58,0.00,,
"RP000098430","1961-03-24",95.00,75.02,0.00,,
"RP000098430","1961-03-25",93.92,73.04,0.00,,
"RP000098430","1961-03-26",95.36,76.64,0.00,,
"RP000098430","1961-03-27",92.84,73.94,0.00,,
"RP000098430","1961-03-28",89.96,71.06,0.00,,
"RP000098430","1961-03-29",89.96,66.92,0.00,,
"RP000098430","1961-03-30",87.08,67.82,0.00,,
"RP000098430","1961-03-31",89.78,70.88,0.00,,
"RP000098430","1961-04-01",92.84,71.06,0.00,,
"RP000098430","1961-04-02",94.46,73.04,0.00,,
"RP000098430","1961-04-03",95.00,71.06,0.00,,
"RP000098430","1961-04-04",96.98,69.98,0.00,,
"RP000098430","1961-04-05",96.26,65.84,0.00,,
"RP000098430","1961-04-06",96.80,75.92,0.00,,
"RP000098430","1961-04-07",89.24,71.06,0.00,,
"RP000098430","1961-04-08",89.96,72.32,0.00,,
"RP000098430","1961-04-09",98.42,73.94,0.00,,
"RP000098430","1961-04-10",93.38,68.00,0.00,,
"RP000098430","1961-04-11",95.00,73.04,0.00,,
"RP000098430","1961-04-12",96.26,69.08,0.00,,
"RP000098430","1961-04-13",97.88,70.88,0.00,,
"RP000098430","1961-04-14",95.36,73.04,0.00,,
"RP000098430","1961-04-15",94.28,74.48,370.00,,
"RP000098430","1961-04-16",95.18,73.04,0.00,,
"RP000098430","1961-04-17",91.94,75.02,0.00,,
"RP000098430","1961-04-18",93.92,75.92,0.00,,
"RP000098430","1961-04-19",96.08,73.58,0.00,,
"RP000098430","1961-04-20",96.80,73.58,0.00,,
"RP000098430","1961-04-21",96.98,74.84,0.00,,
"RP000098430","1961-04-22",96.98,74.12,0.00,,
"RP000098430","1961-04-23",95.36,71.60,0.00,,
"RP000098430","1961-04-24",98.24,71.96,0.00,,
"RP000098430","1961-04-25",98.42,72.68,0.00,,
"RP000098430","1961-04-26",97.70,73.04,0.00,,
"RP000098430","1961-04-27",97.16,71.78,0.00,,
"RP000098430","1961-04-28",98.06,73.22,0.00,,
"RP000098430","1961-04-29",98.42,69.08,0.00,,
"RP000098430","1961-04-30",93.92,73.58,20.00,,
"RP000098430","1961-05-01",96.98,73.22,10.00,,
"RP000098430","1961-05-02",95.72,73.22,0.00,,
"RP000098430","1961-05-03",98.06,73.94,0.00,,
"RP000098430","1961-05-04",97.16,69.80,0.00,,
"RP000098430","1961-05-05",98.42,75.92,0.00,,
"RP000098430","1961-05-06",98.78,75.20,20.00,,
"RP000098430","1961-05-07",98.06,73.22,0.00,,
"RP000098430","1961-05-08",96.26,77.00,0.00,,
"RP000098430","1961-05-09",96.44,75.38,0.00,,
"RP000098430","1961-05-10",96.80,77.00,0.00,,
"RP000098430","1961-05-11",96.44,75.20,20.00,,
"RP000098430","1961-05-12",95.00,65.12,250.00,,
"RP000098430","1961-05-13",88.88,75.20,30.00,,
"RP000098430","1961-05-14",90.32,73.94,80.00,,
"RP000098430","1961-05-15",86.72,75.02,140.00,,
"RP000098430","1961-05-16",86.54,75.92,10.00,,
"RP000098430","1961-05-17",90.86,64.40,140.00,,
"RP000098430","1961-05-18",91.40,75.02,0.00,,
"RP000098430","1961-05-19",92.12,73.94,0.00,,
"RP000098430","1961-05-20",91.04,75.02,0.00,,
"RP000098430","1961-05-21",91.94,75.92,0.00,,
"RP000098430","1961-05-22",93.02,76.28,0.00,,
"RP000098430","1961-05-23",93.20,75.92,10.00,,
"RP000098430","1961-05-24",92.12,75.92,160.00,,
"RP000098430","1961-05-25",86.36,73.40,300.00,,
"RP000098430","1961-05-26",84.92,73.94,40.00,,
"RP000098430","1961-05-27",90.32,75.02,0.00,,
"RP000098430","1961-05-28",93.02,75.56,0.00,,
"RP000098430","1961-05-29",91.94,75.56,40.00,,
"RP000098430","1961-05-30",92.12,75.38,0.00,,
"RP000098430","1961-05-31",93.02,75.02,0.00,,
"RP000098430","1961-06-01",92.84,73.94,270.00,,
"RP000098430","1961-06-02",91.04,74.84,0.00,,
"RP000098430","1961-06-03",91.04,73.40,30.00,,
"RP000098430","1961-06-04",90.68,71.96,180.00,,
"RP000098430","1961-06-05",91.94,73.22,10.00,,
"RP000098430","1961-06-06",91.04,73.58,0.00,,
"RP000098430","1961-06-07",93.02,73.94,20.00,,
"RP000098430","1961-06-08",89.06,73.94,10.00,,
"RP000098430","1961-06-09",88.88,73.76,50.00,,
"RP000098430","1961-06-10",93.92,73.58,0.00,,
"RP000098430","1961-06-11",92.12,73.22,0.00,,
"RP000098430","1961-06-12",95.00,71.06,0.00,,
"RP000098430","1961-06-13",93.02,69.98,0.00,,
"RP000098430","1961-06-14",93.02,73.04,60.00,,
"RP000098430","1961-06-15",93.02,73.04,20.00,,
"RP000098430","1961-06-16",94.46,73.04,0.00,,
"RP000098430","1961-06-17",92.48,73.22,20.00,,
"RP000098430","1961-06-18",91.04,68.90,0.00,,
"RP000098430","1961-06-19",84.92,69.98,120.00,,
"RP000098430","1961-06-20",84.38,71.96,70.00,,
"RP000098430","1961-06-21",90.14,75.20,10.00,,
"RP000098430","1961-06-22",87.08,78.08,80.00,,
"RP000098430","1961-06-23",84.20,73.04,370.00,,
"RP000098430","1961-06-24",78.26,73.04,350.00,,
"RP000098430","1961-06-25",79.88,68.72,890.00,,
"RP000098430","1961-06-26",84.02,69.98,1140.00,,
"RP000098430","1961-06-27",75.20,64.58,1200.00,,
"RP000098430","1961-06-28",82.58,74.84,40.00,,
"RP000098430","1961-06-29",86.00,73.58,380.00,,
"RP000098430","1961-06-30",84.92,74.66,500.00,,
"RP000098430","1961-07-01",82.58,69.98,150.00,,
"RP000098430","1961-07-02",87.62,73.04,10.00,,
"RP000098430","1961-07-03",87.98,72.32,290.00,,
"RP000098430","1961-07-04",82.04,72.68,40.00,,
"RP000098430","1961-07-05",80.96,71.96,120.00,,
"RP000098430","1961-07-06",82.22,73.04,10.00,,
"RP000098430","1961-07-07",88.34,73.04,0.00,,
"RP000098430","1961-07-08",88.70,66.02,0.00,,
"RP000098430","1961-07-09",88.52,66.92,120.00,,
"RP000098430","1961-07-10",84.92,71.24,230.00,,
"RP000098430","1961-07-11",84.20,73.40,20.00,,
"RP000098430","1961-07-12",83.84,71.78,680.00,,
"RP000098430","1961-07-13",85.28,75.92,160.00,,
"RP000098430","1961-07-14",87.08,77.00,0.00,,
"RP000098430","1961-07-15",87.08,73.76,90.00,,
"RP000098430","1961-07-16",84.92,73.04,110.00,,
"RP000098430","1961-07-17",82.04,73.22,80.00,,
"RP000098430","1961-07-18",84.92,73.22,170.00,,
"RP000098430","1961-07-19",85.46,75.02,30.00,,
"RP000098430","1961-07-20",87.80,68.18,0.00,,
"RP000098430","1961-07-21",87.44,75.02,10.00,,
"RP000098430","1961-07-22",89.42,66.02,50.00,,
"RP000098430","1961-07-23",89.78,63.86,10.00,,
"RP000098430","1961-07-24",86.72,71.96,1020.00,,
"RP000098430","1961-07-25",85.10,72.86,370.00,,
"RP000098430","1961-07-26",83.84,73.04,400.00,,
"RP000098430","1961-07-27",84.02,71.42,30.00,,
"RP000098430","1961-07-28",85.64,75.02,0.00,,
"RP000098430","1961-07-29",86.54,74.12,0.00,,
"RP000098430","1961-07-30",88.16,70.34,0.00,,
"RP000098430","1961-07-31",89.60,75.02,0.00,,
"RP000098430","1961-08-01",89.60,75.02,0.00,,
"RP000098430","1961-08-02",88.88,73.22,0.00,,
"RP000098430","1961-08-03",88.16,75.92,0.00,,
"RP000098430","1961-08-04",87.80,74.84,220.00,,
"RP000098430","1961-08-05",87.80,73.76,10.00,,
"RP000098430","1961-08-06",87.80,70.16,0.00,,
"RP000098430","1961-08-07",89.06,73.40,210.00,,
"RP000098430","1961-08-08",84.56,69.98,470.00,,
"RP000098430","1961-08-09",79.16,73.94,60.00,,
"RP000098430","1961-08-10",82.94,74.48,190.00,,
"RP000098430","1961-08-11",85.28,73.94,50.00,,
"RP000098430","1961-08-12",89.60,73.94,160.00,,
"RP000098430","1961-08-13",87.26,70.88,190.00,,
"RP000098430","1961-08-14",82.40,72.32,330.00,,
"RP000098430","1961-08-15",85.28,73.40,120.00,,
"RP000098430","1961-08-16",83.48,75.92,30.00,,
"RP000098430","1961-08-17",85.64,76.82,250.00,,
"RP000098430","1961-08-18",84.38,73.94,10.00,,
"RP000098430","1961-08-19",84.02,74.66,50.00,,
"RP000098430","1961-08-20",86.00,74.12,160.00,,
"RP000098430","1961-08-21",82.40,72.86,50.00,,
"RP000098430","1961-08-22",82.76,75.92,30.00,,
"RP000098430","1961-08-23",84.20,73.94,20.00,,
"RP000098430","1961-08-24",82.40,73.04,380.00,,
"RP000098430","1961-08-25",85.46,73.94,320.00,,
"RP000098430","1961-08-26",87.08,73.22,170.00,,
"RP000098430","1961-08-27",86.72,72.86,30.00,,
"RP000098430","1961-08-28",86.00,71.78,970.00,,
"RP000098430","1961-08-29",79.88,72.68,1280.00,,
"RP000098430","1961-08-30",78.98,71.60,70.00,,
"RP000098430","1961-08-31",88.16,73.04,120.00,,
"RP000098430","1961-09-01",80.96,68.00,240.00,,
"RP000098430","1961-09-02",85.28,75.92,0.00,,
"RP000098430","1961-09-03",87.98,75.02,0.00,,
"RP000098430","1961-09-04",87.44,75.92,50.00,,
"RP000098430","1961-09-05",81.86,72.14,410.00,,
"RP000098430","1961-09-06",84.38,73.04,170.00,,
"RP000098430","1961-09-07",84.38,71.06,110.00,,
"RP000098430","1961-09-08",84.38,73.04,260.00,,
"RP000098430","1961-09-09",86.18,75.02,10.00,,
"RP000098430","1961-09-10",87.08,75.92,0.00,,
"RP000098430","1961-09-11",87.08,69.98,0.00,,
"RP000098430","1961-09-12",86.54,75.02,110.00,,
"RP000098430","1961-09-13",86.18,71.96,200.00,,
"RP000098430","1961-09-14",82.04,73.04,240.00,,
"RP000098430","1961-09-15",83.66,75.92,120.00,,
"RP000098430","1961-09-16",86.72,73.76,10.00,,
"RP000098430","1961-09-17",86.72,72.86,10.00,,
"RP000098430","1961-09-18",87.80,71.96,0.00,,
"RP000098430","1961-09-19",88.88,69.98,10.00,,
"RP000098430","1961-09-20",87.98,70.52,0.00,,
"RP000098430","1961-09-21",86.00,71.06,970.00,,
"RP000098430","1961-09-22",82.76,68.00,620.00,,
"RP000098430","1961-09-23",90.68,77.00,0.00,,
"RP000098430","1961-09-24",89.96,73.94,0.00,,
"RP000098430","1961-09-25",88.88,71.06,0.00,,
"RP000098430","1961-09-26",89.60,73.04,0.00,,
"RP000098430","1961-09-27",89.96,73.04,0.00,,
"RP000098430","1961-09-28",87.08,73.04,160.00,,
"RP000098430","1961-09-29",87.08,72.86,150.00,,
"RP000098430","1961-09-30",86.00,71.96,10.00,,
"RP000098430","1961-10-01",87.08,75.02,50.00,,
"RP000098430","1961-10-02",87.80,78.08,20.00,,
"RP000098430","1961-10-03",87.08,73.94,0.00,,
"RP000098430","1961-10-04",87.08,73.04,30.00,,
"RP000098430","1961-10-05",88.52,72.68,10.00,,
"RP000098430","1961-10-06",86.00,71.06,220.00,,
"RP000098430","1961-10-07",89.06,70.88,690.00,,
"RP000098430","1961-10-08",86.18,71.96,380.00,,
"RP000098430","1961-10-09",85.28,73.04,10.00,,
"RP000098430","1961-10-10",84.74,72.14,110.00,,
"RP000098430","1961-10-11",80.24,71.06,180.00,,
"RP000098430","1961-10-12",82.04,71.78,80.00,,
"RP000098430","1961-10-13",82.04,73.22,0.00,,
"RP000098430","1961-10-14",84.56,72.86,60.00,,
"RP000098430","1961-10-15",84.02,73.76,30.00,,
"RP000098430","1961-10-16",89.06,73.04,30.00,,
"RP000098430","1961-10-17",84.92,73.04,140.00,,
"RP000098430","1961-10-18",85.28,72.68,0.00,,
"RP000098430","1961-10-19",87.08,70.52,20.00,,
"RP000098430","1961-10-20",87.44,73.04,20.00,,
"RP000098430","1961-10-21",89.42,74.66,80.00,,
"RP000098430","1961-10-22",88.16,69.98,200.00,,
"RP000098430","1961-10-23",88.16,69.98,50.00,,
"RP000098430","1961-10-24",88.16,69.98,0.00,,
"RP000098430","1961-10-25",89.96,70.16,80.00,,
"RP000098430","1961-10-26",88.52,69.98,240.00,,
"RP000098430","1961-10-27",88.52,71.06,0.00,,
"RP000098430","1961-10-28",86.36,69.08,0.00,,
"RP000098430","1961-10-29",87.26,67.82,0.00,,
"RP000098430","1961-10-30",87.26,69.08,0.00,,
"RP000098430","1961-10-31",87.08,69.98,0.00,,
"RP000098430","1961-11-01",89.06,69.44,0.00,,
"RP000098430","1961-11-02",88.70,68.00,0.00,,
"RP000098430","1961-11-03",84.92,69.98,30.00,,
"RP000098430","1961-11-04",82.76,72.86,10.00,,
"RP000098430","1961-11-05",85.28,68.72,0.00,,
"RP000098430","1961-11-06",83.12,71.96,10.00,,
"RP000098430","1961-11-07",84.02,70.16,10.00,,
"RP000098430","1961-11-08",87.62,69.98,0.00,,
"RP000098430","1961-11-09",87.08,70.88,0.00,,
"RP000098430","1961-11-10",87.08,69.98,40.00,,
"RP000098430","1961-11-11",86.72,67.28,0.00,,
"RP000098430","1961-11-12",84.38,69.98,0.00,,
"RP000098430","1961-11-13",87.08,68.54,0.00,,
"RP000098430","1961-11-14",85.28,66.02,0.00,,
"RP000098430","1961-11-15",89.06,65.84,0.00,,
"RP000098430","1961-11-16",87.98,67.82,0.00,,
"RP000098430","1961-11-17",91.58,69.98,0.00,,
"RP000098430","1961-11-18",92.48,69.80,0.00,,
"RP000098430","1961-11-19",92.12,71.06,0.00,,
"RP000098430","1961-11-20",91.76,69.44,0.00,,
"RP000098430","1961-11-21",84.92,71.96,410.00,,
"RP000098430","1961-11-22",75.02,64.94,520.00,,
"RP000098430","1961-11-23",78.26,71.06,40.00,,
"RP000098430","1961-11-24",87.80,73.04,0.00,,
"RP000098430","1961-11-25",88.34,69.98,0.00,,
"RP000098430","1961-11-26",89.06,68.36,0.00,,
"RP000098430","1961-11-27",87.26,69.98,0.00,,
"RP000098430","1961-11-28",89.96,68.00,0.00,,
"RP000098430","1961-11-29",89.96,70.16,0.00,,
"RP000098430","1961-11-30",87.80,66.92,20.00,,
"RP000098430","1961-12-01",87.62,68.00,0.00,,
"RP000098430","1961-12-02",88.52,69.98,0.00,,
"RP000098430","1961-12-03",86.72,69.80,10.00,,
"RP000098430","1961-12-04",86.18,66.92,90.00,,
"RP000098430","1961-12-05",87.62,71.06,0.00,,
"RP000098430","1961-12-06",87.08,73.04,0.00,,
"RP000098430","1961-12-07",85.64,70.16,0.00,,
"RP000098430","1961-12-08",82.22,66.74,0.00,,
"RP000098430","1961-12-09",83.12,70.16,0.00,,
"RP000098430","1961-12-10",85.46,73.04,0.00,,
"RP000098430","1961-12-11",87.98,71.06,0.00,,
"RP000098430","1961-12-12",89.78,66.02,0.00,,
"RP000098430","1961-12-13",89.06,69.80,0.00,,
"RP000098430","1961-12-14",88.34,69.08,0.00,,
"RP000098430","1961-12-15",89.60,71.60,0.00,,
"RP000098430","1961-12-16",86.18,75.56,10.00,,
"RP000098430","1961-12-17",90.32,69.98,0.00,,
"RP000098430","1961-12-18",91.94,68.00,0.00,,
"RP000098430","1961-12-19",92.84,68.00,0.00,,
"RP000098430","1961-12-20",93.92,69.08,0.00,,
"RP000098430","1961-12-21",93.20,66.92,0.00,,
"RP000098430","1961-12-22",89.96,71.42,0.00,,
"RP000098430","1961-12-23",88.34,70.34,10.00,,
"RP000098430","1961-12-24",86.54,67.64,0.00,,
"RP000098430","1961-12-25",87.98,69.98,0.00,,
"RP000098430","1961-12-26",87.80,64.94,0.00,,
"RP000098430","1961-12-27",89.06,62.96,0.00,,
"RP000098430","1961-12-28",89.06,68.72,0.00,,
"RP000098430","1961-12-29",88.88,66.02,0.00,,
"RP000098430","1961-12-30",87.08,68.72,0.00,,
"RP000098430","1961-12-31",88.52,69.98,0.00,,
"RP000098430","1962-01-01",86.00,68.54,0.00,,
"RP000098430","1962-01-02",86.18,62.06,0.00,,
"RP000098430","1962-01-03",86.00,62.06,0.00,,
"RP000098430","1962-01-04",84.02,69.98,0.00,,
"RP000098430","1962-01-05",84.20,69.98,0.00,,
"RP000098430","1962-01-06",85.28,69.98,10.00,,
"RP000098430","1962-01-07",87.80,73.04,0.00,,
"RP000098430","1962-01-08",89.06,69.98,0.00,,
"RP000098430","1962-01-09",85.46,71.06,20.00,,
"RP000098430","1962-01-10",87.26,71.06,0.00,,
"RP000098430","1962-01-11",87.08,66.02,0.00,,
"RP000098430","1962-01-12",89.06,71.96,0.00,,
"RP000098430","1962-01-13",86.72,66.74,0.00,,
"RP000098430","1962-01-14",90.14,71.06,0.00,,
"RP000098430","1962-01-15",87.98,69.08,0.00,,
"RP000098430","1962-01-16",88.52,65.12,0.00,,
"RP000098430","1962-01-17",87.98,66.56,0.00,,
"RP000098430","1962-01-18",87.44,68.00,0.00,,
"RP000098430","1962-01-19",87.98,69.44,290.00,,
"RP000098430","1962-01-20",85.46,72.50,0.00,,
"RP000098430","1962-01-21",83.66,62.06,0.00,,
"RP000098430","1962-01-22",82.58,62.78,0.00,,
"RP000098430","1962-01-23",82.94,64.04,0.00,,
"RP000098430","1962-01-24",83.48,68.00,0.00,,
"RP000098430","1962-01-25",80.96,63.32,0.00,,
"RP000098430","1962-01-26",84.02,67.64,0.00,,
"RP000098430","1962-01-27",83.48,68.72,0.00,,
"RP000098430","1962-01-28",82.58,60.08,0.00,,
"RP000098430","1962-01-29",80.96,62.24,0.00,,
"RP000098430","1962-01-30",81.86,62.06,0.00,,
"RP000098430","1962-01-31",82.58,64.04,0.00,,
"RP000098430","1962-02-01",81.14,60.08,0.00,,
"RP000098430","1962-02-02",82.04,62.06,0.00,,
"RP000098430","1962-02-03",78.44,62.78,0.00,,
"RP000098430","1962-02-04",79.16,64.94,10.00,,
"RP000098430","1962-02-05",82.40,63.32,0.00,,
"RP000098430","1962-02-06",82.94,62.96,0.00,,
"RP000098430","1962-02-07",85.46,68.00,0.00,,
"RP000098430","1962-02-08",86.00,66.02,0.00,,
"RP000098430","1962-02-09",89.06,68.18,0.00,,
"RP000098430","1962-02-10",89.06,64.94,0.00,,
"RP000098430","1962-02-11",91.22,62.96,0.00,,
"RP000098430","1962-02-12",90.86,64.94,0.00,,
"RP000098430","1962-02-13",85.46,68.54,0.00,,
"RP000098430","1962-02-14",86.72,66.92,0.00,,
"RP000098430","1962-02-15",89.42,69.08,0.00,,
"RP000098430","1962-02-16",89.06,64.76,0.00,,
"RP000098430","1962-02-17",85.46,64.58,0.00,,
"RP000098430","1962-02-18",84.56,62.96,0.00,,
"RP000098430","1962-02-19",87.08,64.94,0.00,,
"RP000098430","1962-02-20",87.08,64.94,0.00,,
"RP000098430","1962-02-21",88.52,65.48,0.00,,
"RP000098430","1962-02-22",91.22,66.20,0.00,,
"RP000098430","1962-02-23",91.22,69.62,0.00,,
"RP000098430","1962-02-24",93.38,69.80,0.00,,
"RP000098430","1962-02-25",91.76,73.04,0.00,,
"RP000098430","1962-02-26",91.58,69.98,0.00,,
"RP000098430","1962-02-27",92.84,69.08,0.00,,
"RP000098430","1962-02-28",91.94,71.96,0.00,,
"RP000098430","1962-03-01",87.08,71.06,60.00,,
"RP000098430","1962-03-02",89.42,66.02,20.00,,
"RP000098430","1962-03-03",85.28,68.00,0.00,,
"RP000098430","1962-03-04",87.44,66.92,0.00,,
"RP000098430","1962-03-05",89.96,66.02,0.00,,
"RP000098430","1962-03-06",91.22,62.06,0.00,,
"RP000098430","1962-03-07",93.20,64.94,0.00,,
"RP000098430","1962-03-08",93.02,67.46,0.00,,
"RP000098430","1962-03-09",93.02,68.00,0.00,,
"RP000098430","1962-03-10",91.94,70.34,0.00,,
"RP000098430","1962-03-11",93.74,69.98,0.00,,
"RP000098430","1962-03-12",93.92,68.72,0.00,,
"RP000098430","1962-03-13",91.94,66.02,0.00,,
"RP000098430","1962-03-14",94.82,68.36,0.00,,
"RP000098430","1962-03-15",93.56,70.34,0.00,,
"RP000098430","1962-03-16",95.00,69.08,0.00,,
"RP000098430","1962-03-17",91.94,70.34,0.00,,
"RP000098430","1962-03-18",94.28,71.06,0.00,,
"RP000098430","1962-03-19",95.00,72.68,0.00,,
"RP000098430","1962-03-20",96.44,73.04,0.00,,
"RP000098430","1962-03-21",95.54,73.04,0.00,,
"RP000098430","1962-03-22",95.18,77.00,0.00,,
"RP000098430","1962-03-23",93.92,73.04,0.00,,
"RP000098430","1962-03-24",93.56,73.04,0.00,,
"RP000098430","1962-03-25",89.42,71.42,0.00,,
"RP000098430","1962-03-26",93.02,71.96,0.00,,
"RP000098430","1962-03-27",89.60,70.52,0.00,,
"RP000098430","1962-03-28",93.92,69.08,0.00,,
"RP000098430","1962-03-29",95.00,70.52,0.00,,
"RP000098430","1962-03-30",94.64,73.94,0.00,,
"RP000098430","1962-03-31",91.04,71.06,0.00,,
"RP000098430","1962-04-01",95.72,71.96,0.00,,
"RP000098430","1962-04-02",91.94,75.56,0.00,,
"RP000098430","1962-04-03",91.04,72.68,120.00,,
"RP000098430","1962-04-04",91.94,71.96,0.00,,
"RP000098430","1962-04-05",92.66,71.06,0.00,,
"RP000098430","1962-04-06",95.00,71.96,0.00,,
"RP000098430","1962-04-07",96.08,75.92,0.00,,
"RP000098430","1962-04-08",92.12,69.08,0.00,,
"RP000098430","1962-04-09",95.00,68.54,0.00,,
"RP000098430","1962-04-10",93.92,71.06,0.00,,
"RP000098430","1962-04-11",95.00,69.98,0.00,,
"RP000098430","1962-04-12",92.12,73.04,0.00,,
"RP000098430","1962-04-13",94.82,79.52,100.00,,
"RP000098430","1962-04-14",91.94,73.58,0.00,,
"RP000098430","1962-04-15",91.40,73.04,0.00,,
"RP000098430","1962-04-16",89.06,75.02,0.00,,
"RP000098430","1962-04-17",90.50,74.48,0.00,,
"RP000098430","1962-04-18",93.74,71.96,360.00,,
"RP000098430","1962-04-19",84.02,74.66,40.00,,
"RP000098430","1962-04-20",90.68,73.94,0.00,,
"RP000098430","1962-04-21",91.94,75.02,60.00,,
"RP000098430","1962-04-22",87.98,73.04,40.00,,
"RP000098430","1962-04-23",86.00,73.04,0.00,,
"RP000098430","1962-04-24",86.00,73.94,0.00,,
"RP000098430","1962-04-25",93.56,71.06,0.00,,
"RP000098430","1962-04-26",91.58,72.86,0.00,,
"RP000098430","1962-04-27",93.02,80.06,0.00,,
"RP000098430","1962-04-28",93.56,72.50,0.00,,
"RP000098430","1962-04-29",93.56,73.04,0.00,,
"RP000098430","1962-04-30",93.02,64.04,120.00,,
"RP000098430","1962-05-01",91.94,71.06,120.00,,
"RP000098430","1962-05-02",94.82,71.06,0.00,,
"RP000098430","1962-05-03",96.80,64.04,0.00,,
"RP000098430","1962-05-04",95.36,71.06,0.00,,
"RP000098430","1962-05-05",96.44,71.96,0.00,,
"RP000098430","1962-05-06",98.24,75.92,0.00,,
"RP000098430","1962-05-07",96.08,75.02,0.00,,
"RP000098430","1962-05-08",96.98,71.96,0.00,,
"RP000098430","1962-05-09",89.06,73.04,0.00,,
"RP000098430","1962-05-10",97.34,71.96,0.00,,
"RP000098430","1962-05-11",97.34,80.06,0.00,,
"RP000098430","1962-05-12",94.46,73.40,0.00,,
"RP000098430","1962-05-13",96.26,74.48,0.00,,
"RP000098430","1962-05-14",96.98,75.02,0.00,,
"RP000098430","1962-05-15",95.54,73.04,30.00,,
"RP000098430","1962-05-16",94.82,69.80,0.00,,
"RP000098430","1962-05-17",89.60,75.56,70.00,,
"RP000098430","1962-05-18",78.98,69.08,270.00,,